Location: Sungai Ketit
(2.6833°N, 113.2333°E)
Time: 19:37:32
(UTC+00:00)

Hubble Space Telescope - Pass Details

Date: 23 May 2024
Orbit: 510 x 514 km, 28.5° (Epoch: 19 June)

Event Time Altitude Azimuth Distance (km) Brightness Sun altitude
Rises 10:58:39 0° 246° (WSW) 2,613 5.0 -7.2°
Reaches altitude 10° 11:00:55 10° 250° (WSW) 1,726 4.1 -7.7°
Maximum altitude 11:04:51 59° 330° (NNW) 590 1.3 -8.6°
Drops below altitude 10° 11:08:46 10° 50° (NE) 1,719 3.1 -9.5°
Sets 11:11:01 0° 54° (NE) 2,602 3.9 -10.0°
